Location: Bazinghen
(50.8246°N, 1.6616°E)
Time: 09:28:14
(UTC+00:00)

STARLINK-52 - Pass Details

Date: 09 April 2020
Orbit: 393 x 395 km, 53.0° (Epoch: 22 May)

Event Time Altitude Azimuth Distance (km) Brightness Sun altitude
Rises 19:11:35 0° 211° (SSW) 2,282 6.9 -5.6°
Reaches altitude 10° 19:13:53 10° 196° (SSW) 1,430 5.7 -6.0°
Maximum altitude 19:16:29 23° 142° (SE) 898 4.2 -6.4°
Drops below altitude 10° 19:19:06 10° 88° (E) 1,440 5.2 -6.8°
Enters shadow 19:19:56 - 81° (E) 1,733 5.6 -6.9°
